,,PA_Meas_PMT16A,,PR_Meas_QMR101_102,,RH_Meas_QMH101,,SR_Meas_QMS101,,TA_Meas_QMH101,,GenWind,,GenWind,
time,status,PA,status,PR,status,RH,status,SR,status,TA,status,DirAvg,status,SpdAvg,
2011-08-02, 00:00:04,VALID,916.838,VALID,0,VALID,78.8719,VALID,0,VALID,21.1282,VALID,132,VALID,0.7625,
2011-08-02, 00:01:04,VALID,916.828,VALID,0,VALID,78.9557,VALID,0,VALID,21.1055,VALID,114,VALID,1.17109,
2011-08-02, 00:02:04,VALID,916.832,VALID,0,VALID,78.7804,VALID,0.107441,VALID,21.0665,VALID,132,VALID,2.02773,
2011-08-02, 00:03:04,VALID,916.838,VALID,0,VALID,78.8337,VALID,0.107441,VALID,21.0649,VALID,116,VALID,1.54883,
2011-08-02, 00:04:04,VALID,916.829,VALID,0,VALID,78.7575,VALID,0,VALID,21.1071,VALID,144,VALID,1.02617,
2011-08-02, 00:05:04,VALID,916.815,VALID,0,VALID,78.788,VALID,0,VALID,21.0665,VALID,125,VALID,1.62812,
2011-08-02, 00:06:04,VALID,916.765,VALID,0,VALID,79.1844,VALID,0.107441,VALID,21.0454,VALID,112,VALID,1.7043,
2011-08-02, 00:07:04,VALID,916.748,VALID,0,VALID,78.5441,VALID,0,VALID,21.086,VALID,135,VALID,1.7707,
2011-08-02, 00:08:04,VALID,916.755,VALID,0,VALID,78.3458,VALID,0,VALID,21.1657,VALID,152,VALID,1.19453,
2011-08-02, 00:09:04,VALID,916.736,VALID,0,VALID,78.4145,VALID,0,VALID,21.1852,VALID,147,VALID,0.609766,
2011-08-02, 00:10:04,VALID,916.748,VALID,0,VALID,78.4145,VALID,0.107441,VALID,21.125,VALID,116,VALID,1.47344,
2011-08-02, 00:11:04,VALID,916.771,VALID,0,VALID,78.5517,VALID,0.107441,VALID,21.1266,VALID,124,VALID,1.36563,
2011-08-02, 00:12:04,VALID,916.762,VALID,0,VALID,78.5059,VALID,0,VALID,21.1266,VALID,126,VALID,1.91133,
2011-08-02, 00:13:04,VALID,916.775,VALID,0,VALID,78.4754,VALID,0,VALID,21.0649,VALID,99,VALID,1.02109,
2011-08-02, 00:14:04,VALID,916.768,VALID,0,VALID,79.0015,VALID,0,VALID,21.0243,VALID,108,VALID,1.19336,
2011-08-02, 00:15:04,VALID,916.788,VALID,0,VALID,78.6508,VALID,0,VALID,20.969,VALID,136,VALID,1.91133,
2011-08-02, 00:16:04,VALID,916.762,VALID,0,VALID,78.5898,VALID,0,VALID,21.0486,VALID,102,VALID,1.44453,
2011-08-02, 00:17:04,VALID,916.771,VALID,0,VALID,78.3077,VALID,0,VALID,21.0892,VALID,130,VALID,1.81367,
2011-08-02, 00:18:04,VALID,916.755,VALID,0,VALID,78.4831,VALID,0,VALID,21.1087,VALID,117,VALID,1.32891,
2011-08-02, 00:19:04,VALID,916.776,VALID,0,VALID,78.8261,VALID,0,VALID,21.0275,VALID,117,VALID,1.36719,
2011-08-02, 00:20:04,VALID,916.751,VALID,0,VALID,78.9938,VALID,0,VALID,20.969,VALID,120,VALID,1.46836,
2011-08-02, 00:21:04,VALID,916.743,VALID,0,VALID,78.7423,VALID,0,VALID,20.9495,VALID,138,VALID,1.41328,
2011-08-02, 00:22:04,VALID,916.749,VALID,0,VALID,79.0701,VALID,0,VALID,21.0144,VALID,131,VALID,0.938672,
2011-08-02, 00:23:04,VALID,916.739,VALID,0,VALID,78.7651,VALID,0,VALID,20.93,VALID,126,VALID,1.15313,
2011-08-02, 00:24:04,VALID,916.75,VALID,0,VALID,79.2912,VALID,0,VALID,20.9316,VALID,120,VALID,0.924219,
2011-08-02, 00:25:04,VALID,916.747,VALID,0,VALID,79.6266,VALID,0,VALID,20.8746,VALID,120,VALID,1.17266,
2011-08-02, 00:26:04,VALID,916.727,VALID,0,VALID,79.4131,VALID,0,VALID,20.7934,VALID,121,VALID,1.69219,
2011-08-02, 00:27:04,VALID,916.736,VALID,0,VALID,79.5808,VALID,0,VALID,20.7934,VALID,112,VALID,1.02188,
2011-08-02, 00:28:04,VALID,916.767,VALID,0,VALID,79.4284,VALID,0,VALID,20.8129,VALID,107,VALID,1.09766,
2011-08-02, 00:29:04,VALID,916.815,VALID,0,VALID,79.619,VALID,0,VALID,20.7739,VALID,117,VALID,1.42695,
2011-08-02, 00:30:04,VALID,916.789,VALID,0,VALID,79.4741,VALID,0,VALID,20.8161,VALID,138,VALID,1.44844,
2011-08-02, 00:31:04,VALID,916.811,VALID,0,VALID,79.5732,VALID,0,VALID,20.7739,VALID,106,VALID,1.15625,
2011-08-02, 00:32:04,VALID,916.795,VALID,0,VALID,79.6266,VALID,0,VALID,20.795,VALID,124,VALID,1.04414,
2011-08-02, 00:33:04,VALID,916.775,VALID,0,VALID,79.4436,VALID,0,VALID,20.8161,VALID,108,VALID,1.73203,
2011-08-02, 00:34:04,VALID,916.801,VALID,0,VALID,79.3064,VALID,0,VALID,20.795,VALID,115,VALID,1.62461,
2011-08-02, 00:35:04,VALID,916.795,VALID,0,VALID,79.5427,VALID,0,VALID,20.795,VALID,113,VALID,1.09883,
2011-08-02, 00:36:04,VALID,916.792,VALID,0,VALID,79.558,VALID,0,VALID,20.7966,VALID,115,VALID,1.21172,
2011-08-02, 00:37:04,VALID,916.76,VALID,0,VALID,79.3445,VALID,0,VALID,20.7934,VALID,100,VALID,1.10977,
2011-08-02, 00:38:04,VALID,916.737,VALID,0,VALID,79.0015,VALID,0,VALID,20.7934,VALID,121,VALID,1.62617,
2011-08-02, 00:39:04,VALID,916.667,VALID,0,VALID,78.7804,VALID,0,VALID,20.8324,VALID,122,VALID,1.78203,
2011-08-02, 00:40:04,VALID,916.631,VALID,0,VALID,78.4373,VALID,0,VALID,20.8894,VALID,130,VALID,1.05977,
2011-08-02, 00:41:04,VALID,916.616,VALID,0,VALID,78.4907,VALID,0,VALID,20.9105,VALID,142,VALID,1.3707,
2011-08-02, 00:42:04,VALID,916.594,VALID,0,VALID,78.6279,VALID,0,VALID,20.891,VALID,127,VALID,1.2,
2011-08-02, 00:43:04,VALID,916.586,VALID,0,VALID,78.6965,VALID,0,VALID,20.834,VALID,127,VALID,1.92344,
2011-08-02, 00:44:04,VALID,916.571,VALID,0,VALID,78.7194,VALID,0,VALID,20.8535,VALID,108,VALID,1.56992,
2011-08-02, 00:45:04,VALID,916.583,VALID,0,VALID,78.4907,VALID,0,VALID,20.873,VALID,116,VALID,1.3582,
2011-08-02, 00:46:04,VALID,916.57,VALID,0,VALID,78.1095,VALID,0,VALID,20.9152,VALID,123,VALID,2.42266,
2011-08-02, 00:47:04,VALID,916.565,VALID,0,VALID,77.3777,VALID,0,VALID,21.0275,VALID,94,VALID,1.13945,
2011-08-02, 00:48:04,VALID,916.571,VALID,0,VALID,77.6064,VALID,0,VALID,21.0275,VALID,99,VALID,1.37109,
2011-08-02, 00:49:04,VALID,916.557,VALID,0,VALID,77.3853,VALID,0,VALID,21.0096,VALID,110,VALID,1.23672,
2011-08-02, 00:50:04,VALID,916.562,VALID,0,VALID,77.5378,VALID,0,VALID,21.0096,VALID,118,VALID,1.51992,
2011-08-02, 00:51:04,VALID,916.553,VALID,0,VALID,77.5835,VALID,0,VALID,21.0518,VALID,112,VALID,1.23555,
2011-08-02, 00:52:04,VALID,916.565,VALID,0,VALID,77.3624,VALID,0,VALID,21.0307,VALID,135,VALID,2.02383,
2011-08-02, 00:53:04,VALID,916.573,VALID,0,VALID,76.844,VALID,0,VALID,21.0291,VALID,142,VALID,1.86328,
2011-08-02, 00:54:04,VALID,916.607,VALID,0,VALID,77.0041,VALID,0,VALID,21.0892,VALID,133,VALID,1.3457,
2011-08-02, 00:55:04,VALID,916.592,VALID,0,VALID,77.0575,VALID,0,VALID,21.0665,VALID,151,VALID,0.711719,
2011-08-02, 00:56:04,VALID,916.613,VALID,0,VALID,76.7602,VALID,0,VALID,21.0454,VALID,157,VALID,1.6168,
2011-08-02, 00:57:04,VALID,916.616,VALID,0,VALID,76.9126,VALID,0,VALID,21.0665,VALID,155,VALID,1.03477,
2011-08-02, 00:58:04,VALID,916.595,VALID,0,VALID,76.8135,VALID,0,VALID,21.1087,VALID,139,VALID,0.848828,
2011-08-02, 00:59:04,VALID,916.572,VALID,0,VALID,76.7221,VALID,0,VALID,21.0876,VALID,139,VALID,0.95,
2011-08-02, 01:00:04,VALID,916.555,VALID,0,VALID,77.1185,VALID,0,VALID,21.0259,VALID,139,VALID,0.41875,
2011-08-02, 01:01:04,VALID,916.591,VALID,0,VALID,77.0346,VALID,0.107441,VALID,21.1087,VALID,159,VALID,1.00234,
2011-08-02, 01:02:04,VALID,916.563,VALID,0,VALID,76.7373,VALID,0.107441,VALID,21.0844,VALID,198,VALID,1.16055,
2011-08-02, 01:03:04,VALID,916.575,VALID,0,VALID,76.257,VALID,0.107441,VALID,21.1429,VALID,184,VALID,0.708984,
2011-08-02, 01:04:04,VALID,916.543,VALID,0,VALID,76.5315,VALID,0.107441,VALID,21.1836,VALID,184,VALID,0.661719,
2011-08-02, 01:05:04,VALID,916.547,VALID,0,VALID,76.7983,VALID,0,VALID,21.1445,VALID,184,VALID,0.565625,
2011-08-02, 01:06:04,VALID,916.536,VALID,0,VALID,76.318,VALID,0.107441,VALID,21.1039,VALID,184,VALID,0.635547,
2011-08-02, 01:07:04,VALID,916.563,VALID,0,VALID,76.501,VALID,0,VALID,21.1673,VALID,184,VALID,0.887891,
2011-08-02, 01:08:04,VALID,916.538,VALID,0,VALID,76.7144,VALID,0,VALID,21.125,VALID,184,VALID,1.45703,
2011-08-02, 01:09:04,VALID,916.553,VALID,0,VALID,76.2265,VALID,0,VALID,21.125,VALID,184,VALID,1.54336,
2011-08-02, 01:10:04,VALID,916.535,VALID,0,VALID,76.3866,VALID,0,VALID,21.1234,VALID,184,VALID,0.999609,
2011-08-02, 01:11:04,VALID,916.542,VALID,0,VALID,76.1198,VALID,0,VALID,21.1445,VALID,184,VALID,1.02031,
2011-08-02, 01:12:04,VALID,916.556,VALID,0,VALID,76.2875,VALID,0.107441,VALID,21.1039,VALID,184,VALID,0.825,
2011-08-02, 01:13:04,VALID,916.548,VALID,0,VALID,76.4019,VALID,0,VALID,21.0844,VALID,184,VALID,0.609766,
2011-08-02, 01:14:04,VALID,916.549,VALID,0,VALID,76.2189,VALID,0,VALID,21.086,VALID,184,VALID,1.56758,
2011-08-02, 01:15:04,VALID,916.515,VALID,0,VALID,76.44,VALID,0.107441,VALID,21.0633,VALID,184,VALID,0.750781,
2011-08-02, 01:16:04,VALID,916.542,VALID,0,VALID,76.7754,VALID,0,VALID,21.0243,VALID,184,VALID,1.17617,
2011-08-02, 01:17:04,VALID,916.487,VALID,0,VALID,76.6001,VALID,0,VALID,21.0697,VALID,184,VALID,0.609766,
2011-08-02, 01:18:04,VALID,916.507,VALID,0,VALID,76.9508,VALID,0,VALID,20.9853,VALID,184,VALID,1.03789,
2011-08-02, 01:19:04,VALID,916.48,VALID,0,VALID,77.21,VALID,0.107441,VALID,20.9479,VALID,184,VALID,0.871094,
2011-08-02, 01:20:04,VALID,916.503,VALID,0,VALID,77.5073,VALID,0.107441,VALID,20.9511,VALID,184,VALID,0.447266,
2011-08-02, 01:21:04,VALID,916.508,VALID,0,VALID,77.7893,VALID,0.107441,VALID,20.9754,VALID,184,VALID,0.655859,
2011-08-02, 01:22:04,VALID,916.482,VALID,0,VALID,77.9342,VALID,0.107441,VALID,20.7708,VALID,184,VALID,0.625,
2011-08-02, 01:23:04,VALID,916.476,VALID,0,VALID,78.14,VALID,0.107441,VALID,20.7739,VALID,184,VALID,1.03789,
2011-08-02, 01:24:04,VALID,916.462,VALID,0,VALID,78.2849,VALID,0.107441,VALID,20.7544,VALID,184,VALID,0.883984,
2011-08-02, 01:25:04,VALID,916.439,VALID,0,VALID,78.1476,VALID,0.107441,VALID,20.7739,VALID,151,VALID,0.871484,
2011-08-02, 01:26:04,VALID,916.46,VALID,0,VALID,77.8275,VALID,0.107441,VALID,20.8129,VALID,169,VALID,0.715234,
2011-08-02, 01:27:04,VALID,916.469,VALID,0,VALID,78.3001,VALID,0,VALID,20.834,VALID,169,VALID,0.68125,
2011-08-02, 01:28:04,VALID,916.472,VALID,0,VALID,78.0714,VALID,0,VALID,20.7934,VALID,169,VALID,0.8125,
2011-08-02, 01:29:04,VALID,916.414,VALID,0,VALID,78.2467,VALID,0,VALID,20.7934,VALID,169,VALID,0.66875,
2011-08-02, 01:30:04,VALID,916.447,VALID,0,VALID,78.323,VALID,0,VALID,20.8161,VALID,169,VALID,0.612891,
2011-08-02, 01:31:04,VALID,916.422,VALID,0,VALID,78.0866,VALID,0.107441,VALID,20.7966,VALID,169,VALID,1.17773,
2011-08-02, 01:32:04,VALID,916.357,VALID,0,VALID,78.3154,VALID,0,VALID,20.7123,VALID,162,VALID,0.584766,
2011-08-02, 01:33:04,VALID,916.35,VALID,0,VALID,78.2696,VALID,0,VALID,20.6928,VALID,156,VALID,1.19609,
2011-08-02, 01:34:04,VALID,916.284,VALID,0,VALID,78.4068,VALID,0,VALID,20.756,VALID,153,VALID,0.336719,
2011-08-02, 01:35:04,VALID,916.263,VALID,0,VALID,78.8185,VALID,0.107441,VALID,20.6537,VALID,153,VALID,0.653906,
2011-08-02, 01:36:04,VALID,916.266,VALID,0,VALID,78.6508,VALID,0.107441,VALID,20.6569,VALID,167,VALID,0.736719,
2011-08-02, 01:37:04,VALID,916.229,VALID,0,VALID,78.8185,VALID,0,VALID,20.6374,VALID,167,VALID,0.690625,
2011-08-02, 01:38:04,VALID,916.222,VALID,0,VALID,79.1234,VALID,0,VALID,20.5968,VALID,134,VALID,0.874219,
2011-08-02, 01:39:04,VALID,916.221,VALID,0,VALID,78.788,VALID,0,VALID,20.6421,VALID,178,VALID,0.729297,
2011-08-02, 01:40:04,VALID,916.162,VALID,0,VALID,78.788,VALID,0.107441,VALID,20.5562,VALID,152,VALID,0.956641,
2011-08-02, 01:41:04,VALID,916.179,VALID,0,VALID,78.6279,VALID,0,VALID,20.6179,VALID,154,VALID,0.527344,
2011-08-02, 01:42:04,VALID,916.173,VALID,0,VALID,78.6355,VALID,0,VALID,20.5984,VALID,127,VALID,0.546875,
2011-08-02, 01:43:04,VALID,916.142,VALID,0,VALID,78.4678,VALID,0.107441,VALID,20.6179,VALID,127,VALID,0.624609,
2011-08-02, 01:44:04,VALID,916.125,VALID,0,VALID,78.3763,VALID,0,VALID,20.6179,VALID,138,VALID,1.03281,
2011-08-02, 01:45:04,VALID,916.118,VALID,0,VALID,77.8427,VALID,0.107441,VALID,20.6959,VALID,139,VALID,1.43789,
2011-08-02, 01:46:04,VALID,916.094,VALID,0,VALID,78.3535,VALID,0,VALID,20.6585,VALID,142,VALID,0.559766,
2011-08-02, 01:47:04,VALID,916.087,VALID,0,VALID,78.4678,VALID,0,VALID,20.5804,VALID,137,VALID,0.896484,
2011-08-02, 01:48:04,VALID,916.086,VALID,0,VALID,78.3077,VALID,0,VALID,20.5804,VALID,120,VALID,1.13359,
2011-08-02, 01:49:04,VALID,916.08,VALID,0,VALID,78.5669,VALID,0,VALID,20.5999,VALID,120,VALID,1.13437,
2011-08-02, 01:50:04,VALID,916.089,VALID,0,VALID,78.3687,VALID,0,VALID,20.5999,VALID,120,VALID,1.33867,
2011-08-02, 01:51:04,VALID,916.064,VALID,0,VALID,78.3077,VALID,0,VALID,20.582,VALID,121,VALID,0.633594,
2011-08-02, 01:52:04,VALID,916.061,VALID,0,VALID,78.4068,VALID,0,VALID,20.5609,VALID,124,VALID,0.803125,
2011-08-02, 01:53:04,VALID,916.067,VALID,0,VALID,78.605,VALID,0,VALID,20.5219,VALID,124,VALID,0.795703,
2011-08-02, 01:54:04,VALID,916.079,VALID,0,VALID,78.8642,VALID,0,VALID,20.5024,VALID,124,VALID,0.403125,
2011-08-02, 01:55:04,VALID,916.059,VALID,0,VALID,79.1692,VALID,0,VALID,20.4454,VALID,124,VALID,0.682031,
2011-08-02, 01:56:04,VALID,916.037,VALID,0,VALID,79.5275,VALID,0,VALID,20.3659,VALID,124,VALID,0.91875,
2011-08-02, 01:57:04,VALID,916.044,VALID,0,VALID,79.8324,VALID,0,VALID,20.3479,VALID,124,VALID,0.639063,
2011-08-02, 01:58:04,VALID,916.073,VALID,0,VALID,80.1831,VALID,0,VALID,20.2293,VALID,124,VALID,0.434375,
2011-08-02, 01:59:04,VALID,916.065,VALID,0,VALID,80.6176,VALID,0,VALID,20.1724,VALID,124,VALID,0.0929687,
2011-08-02, 02:00:04,VALID,916.035,VALID,0,VALID,80.9912,VALID,0,VALID,20.0749,VALID,124,VALID,0,
2011-08-02, 02:01:04,VALID,916.02,VALID,0,VALID,81.4562,VALID,0,VALID,19.9533,VALID,124,VALID,0.294922,
2011-08-02, 02:02:04,VALID,916.016,VALID,0,VALID,81.7383,VALID,0,VALID,19.9158,VALID,124,VALID,0.332031,
2011-08-02, 02:03:04,VALID,916.022,VALID,0,VALID,82.1957,VALID,0.107441,VALID,19.7778,VALID,124,VALID,0.310937,
2011-08-02, 02:04:04,VALID,916.018,VALID,0,VALID,82.4625,VALID,0,VALID,19.7388,VALID,124,VALID,0.0953125,
2011-08-02, 02:05:04,VALID,916.013,VALID,0,VALID,82.8132,VALID,0,VALID,19.7223,VALID,124,VALID,0,
2011-08-02, 02:06:04,VALID,916.013,VALID,0,VALID,82.9733,VALID,0,VALID,19.6833,VALID,124,VALID,0,
2011-08-02, 02:07:04,VALID,915.996,VALID,0,VALID,83.2172,VALID,0,VALID,19.6038,VALID,124,VALID,0,
2011-08-02, 02:08:04,VALID,916.004,VALID,0,VALID,83.3239,VALID,0,VALID,19.5858,VALID,124,VALID,0,
2011-08-02, 02:09:04,VALID,915.966,VALID,0,VALID,83.5374,VALID,0,VALID,19.5453,VALID,124,VALID,0,
2011-08-02, 02:10:04,VALID,915.974,VALID,0,VALID,83.4764,VALID,0,VALID,19.5258,VALID,124,VALID,0,
2011-08-02, 02:11:04,VALID,915.967,VALID,0,VALID,83.5298,VALID,0,VALID,19.5453,VALID,124,VALID,0.417969,
2011-08-02, 02:12:04,VALID,915.945,VALID,0,VALID,83.3849,VALID,0,VALID,19.5648,VALID,124,VALID,0.658594,
2011-08-02, 02:13:04,VALID,915.959,VALID,0,VALID,83.1867,VALID,0,VALID,19.5648,VALID,124,VALID,0.8,
2011-08-02, 02:14:04,VALID,915.95,VALID,0,VALID,83.0952,VALID,0,VALID,19.5843,VALID,124,VALID,0.685547,
2011-08-02, 02:15:04,VALID,915.952,VALID,0,VALID,83.0419,VALID,0,VALID,19.6233,VALID,124,VALID,0.860547,
2011-08-02, 02:16:04,VALID,915.93,VALID,0,VALID,83.1638,VALID,0,VALID,19.6053,VALID,124,VALID,0.63125,
2011-08-02, 02:17:04,VALID,915.937,VALID,0,VALID,83.1791,VALID,0.107441,VALID,19.6053,VALID,124,VALID,0.902734,
2011-08-02, 02:18:04,VALID,915.941,VALID,0,VALID,83.0724,VALID,0,VALID,19.6248,VALID,124,VALID,0.734375,
2011-08-02, 02:19:04,VALID,915.904,VALID,0,VALID,83.1943,VALID,0,VALID,19.6038,VALID,124,VALID,0.299219,
2011-08-02, 02:20:04,VALID,915.893,VALID,0,VALID,83.3011,VALID,0,VALID,19.5843,VALID,124,VALID,0.136719,
2011-08-02, 02:21:04,VALID,915.848,VALID,0,VALID,83.5908,VALID,0,VALID,19.5453,VALID,124,VALID,0.130469,
2011-08-02, 02:22:04,VALID,915.845,VALID,0,VALID,83.7508,VALID,0,VALID,19.5063,VALID,124,VALID,0.223828,
2011-08-02, 02:23:04,VALID,915.827,VALID,0,VALID,84.0177,VALID,0,VALID,19.4868,VALID,124,VALID,0.256641,
2011-08-02, 02:24:04,VALID,915.819,VALID,0,VALID,84.1168,VALID,0,VALID,19.4478,VALID,124,VALID,0.312891,
2011-08-02, 02:25:04,VALID,915.823,VALID,0,VALID,84.0482,VALID,0.107441,VALID,19.4088,VALID,124,VALID,0.121484,
2011-08-02, 02:26:04,VALID,915.798,VALID,0,VALID,84.1549,VALID,0,VALID,19.3893,VALID,124,VALID,0.404297,
2011-08-02, 02:27:04,VALID,915.811,VALID,0,VALID,84.5361,VALID,0,VALID,19.3503,VALID,124,VALID,0.599609,
2011-08-02, 02:28:04,VALID,915.777,VALID,0,VALID,85.0316,VALID,0,VALID,19.3713,VALID,124,VALID,0.651172,
2011-08-02, 02:29:04,VALID,915.776,VALID,0,VALID,85.2832,VALID,0,VALID,19.3503,VALID,124,VALID,0.147266,
2011-08-02, 02:30:04,VALID,915.776,VALID,0,VALID,85.5576,VALID,0,VALID,19.3113,VALID,124,VALID,0.233984,
2011-08-02, 02:31:04,VALID,915.763,VALID,0,VALID,85.1536,VALID,0,VALID,19.2918,VALID,124,VALID,0,
2011-08-02, 02:32:04,VALID,915.768,VALID,0,VALID,85.1459,VALID,0,VALID,19.2334,VALID,124,VALID,0,
2011-08-02, 02:33:04,VALID,915.772,VALID,0,VALID,85.8168,VALID,0,VALID,19.2139,VALID,124,VALID,0,
2011-08-02, 02:34:04,VALID,915.809,VALID,0,VALID,86.1751,VALID,0,VALID,19.2153,VALID,124,VALID,0,
2011-08-02, 02:35:04,VALID,915.812,VALID,0,VALID,86.137,VALID,0,VALID,19.1958,VALID,124,VALID,0,
2011-08-02, 02:36:04,VALID,915.819,VALID,0,VALID,86.1522,VALID,0,VALID,19.1554,VALID,124,VALID,0,
2011-08-02, 02:37:04,VALID,915.791,VALID,0,VALID,86.1751,VALID,0,VALID,19.1568,VALID,124,VALID,0.182422,
2011-08-02, 02:38:04,VALID,915.79,VALID,0,VALID,86.1598,VALID,0,VALID,19.1958,VALID,124,VALID,0.53125,
2011-08-02, 02:39:04,VALID,915.796,VALID,0,VALID,86.0531,VALID,0.107441,VALID,19.2543,VALID,124,VALID,0.292188,
2011-08-02, 02:40:04,VALID,915.815,VALID,0,VALID,85.9235,VALID,0,VALID,19.2738,VALID,124,VALID,0.0886719,
2011-08-02, 02:41:04,VALID,915.803,VALID,0,VALID,85.8702,VALID,0,VALID,19.2933,VALID,124,VALID,0.415625,
2011-08-02, 02:42:04,VALID,915.842,VALID,0,VALID,86.4724,VALID,0,VALID,19.2543,VALID,124,VALID,0.694531,
2011-08-02, 02:43:04,VALID,915.821,VALID,0,VALID,86.9832,VALID,0,VALID,19.2153,VALID,124,VALID,0.296094,
2011-08-02, 02:44:04,VALID,915.839,VALID,0,VALID,87.2119,VALID,0,VALID,19.1958,VALID,124,VALID,0.381641,
2011-08-02, 02:45:04,VALID,915.839,VALID,0,VALID,87.0823,VALID,0,VALID,19.1944,VALID,124,VALID,0,
2011-08-02, 02:46:04,VALID,915.849,VALID,0,VALID,86.6859,VALID,0,VALID,19.2543,VALID,124,VALID,0.497656,
2011-08-02, 02:47:04,VALID,915.832,VALID,0,VALID,86.5182,VALID,0,VALID,19.2933,VALID,124,VALID,0.45625,
2011-08-02, 02:48:04,VALID,915.847,VALID,0,VALID,86.2818,VALID,0,VALID,19.3128,VALID,124,VALID,0.551953,
2011-08-02, 02:49:04,VALID,915.857,VALID,0,VALID,86.1065,VALID,0,VALID,19.3503,VALID,124,VALID,0.408984,
2011-08-02, 02:50:04,VALID,915.899,VALID,0,VALID,85.9998,VALID,0,VALID,19.3713,VALID,124,VALID,0.300781,
2011-08-02, 02:51:04,VALID,915.883,VALID,0,VALID,85.5042,VALID,0,VALID,19.3713,VALID,124,VALID,0.475391,
2011-08-02, 02:52:04,VALID,915.881,VALID,0,VALID,86.1217,VALID,0,VALID,19.3113,VALID,124,VALID,0.799219,
2011-08-02, 02:53:04,VALID,915.852,VALID,0,VALID,86.3581,VALID,0,VALID,19.3308,VALID,124,VALID,0.646875,
2011-08-02, 02:54:04,VALID,915.893,VALID,0,VALID,86.2589,VALID,0,VALID,19.3308,VALID,124,VALID,0.653516,
2011-08-02, 02:55:04,VALID,915.826,VALID,0,VALID,86.1827,VALID,0,VALID,19.3713,VALID,124,VALID,0.666797,
2011-08-02, 02:56:04,VALID,915.851,VALID,0,VALID,85.8854,VALID,0,VALID,19.4508,VALID,124,VALID,0.441797,
2011-08-02, 02:57:04,VALID,915.852,VALID,0,VALID,85.3899,VALID,0,VALID,19.4463,VALID,124,VALID,0.353516,
2011-08-02, 02:58:04,VALID,915.835,VALID,0,VALID,82.9199,VALID,0,VALID,19.4883,VALID,124,VALID,0,
2011-08-02, 02:59:04,VALID,915.839,VALID,0,VALID,84.5818,VALID,0,VALID,19.1944,VALID,124,VALID,0.473828,
2011-08-02, 03:00:04,VALID,915.828,VALID,0,VALID,86.9298,VALID,0,VALID,18.9229,VALID,124,VALID,0.587109,
2011-08-02, 03:01:04,VALID,915.807,VALID,0,VALID,88.7671,VALID,0,VALID,18.7113,VALID,124,VALID,0.595703,
2011-08-02, 03:02:04,VALID,915.796,VALID,0,VALID,89.6742,VALID,0,VALID,18.6319,VALID,124,VALID,0.475,
2011-08-02, 03:03:04,VALID,915.778,VALID,0,VALID,89.9868,VALID,0,VALID,18.5734,VALID,124,VALID,0.35625,
2011-08-02, 03:04:04,VALID,915.787,VALID,0,VALID,89.7352,VALID,0,VALID,18.5525,VALID,124,VALID,0.422266,
2011-08-02, 03:05:04,VALID,915.781,VALID,0,VALID,89.5446,VALID,0,VALID,18.5135,VALID,124,VALID,0.666797,
2011-08-02, 03:06:04,VALID,915.781,VALID,0,VALID,90.2689,VALID,0,VALID,18.5135,VALID,124,VALID,0.717188,
2011-08-02, 03:07:04,VALID,915.781,VALID,0,VALID,90.2994,VALID,0,VALID,18.533,VALID,124,VALID,0.602734,
2011-08-02, 03:08:04,VALID,915.744,VALID,0,VALID,90.1469,VALID,0,VALID,18.572,VALID,124,VALID,0.414453,
2011-08-02, 03:09:04,VALID,915.791,VALID,0,VALID,89.842,VALID,0,VALID,18.5914,VALID,124,VALID,0.514063,
2011-08-02, 03:10:04,VALID,915.808,VALID,0,VALID,89.7505,VALID,0,VALID,18.6319,VALID,124,VALID,0.573047,
2011-08-02, 03:11:04,VALID,915.805,VALID,0,VALID,89.8038,VALID,0,VALID,18.6499,VALID,124,VALID,0.329297,
2011-08-02, 03:12:04,VALID,915.815,VALID,0,VALID,89.2473,VALID,0,VALID,18.6694,VALID,124,VALID,0.312109,
2011-08-02, 03:13:04,VALID,915.843,VALID,0,VALID,88.3859,VALID,0,VALID,18.6499,VALID,124,VALID,0.552734,
2011-08-02, 03:14:04,VALID,915.814,VALID,0,VALID,88.3859,VALID,0,VALID,18.5344,VALID,124,VALID,0.741797,
2011-08-02, 03:15:04,VALID,915.818,VALID,0,VALID,90.0173,VALID,0,VALID,18.416,VALID,124,VALID,0.501172,
2011-08-02, 03:16:04,VALID,915.831,VALID,0,VALID,89.6285,VALID,0,VALID,18.3172,VALID,124,VALID,0.463281,
2011-08-02, 03:17:04,VALID,915.816,VALID,0,VALID,90.2384,VALID,0,VALID,18.3004,VALID,124,VALID,0.530859,
2011-08-02, 03:18:04,VALID,915.842,VALID,0,VALID,91.298,VALID,0,VALID,18.2601,VALID,124,VALID,0.758594,
2011-08-02, 03:19:04,VALID,915.826,VALID,0,VALID,91.4962,VALID,0,VALID,18.3004,VALID,124,VALID,0.990625,
2011-08-02, 03:20:04,VALID,915.807,VALID,0,VALID,91.3895,VALID,0,VALID,18.3575,VALID,124,VALID,0.348437,
2011-08-02, 03:21:04,VALID,915.833,VALID,0,VALID,90.5204,VALID,0,VALID,18.377,VALID,124,VALID,0.0597656,
2011-08-02, 03:22:04,VALID,915.825,VALID,0,VALID,89.7429,VALID,0,VALID,18.2809,VALID,124,VALID,0.887891,
2011-08-02, 03:23:04,VALID,915.792,VALID,0,VALID,91.3743,VALID,0,VALID,18.2406,VALID,124,VALID,1.00273,
2011-08-02, 03:24:04,VALID,915.799,VALID,0,VALID,91.664,VALID,0,VALID,18.2601,VALID,124,VALID,1.09727,
2011-08-02, 03:25:04,VALID,915.801,VALID,0,VALID,91.542,VALID,0,VALID,18.2392,VALID,124,VALID,1.08398,
2011-08-02, 03:26:04,VALID,915.813,VALID,0,VALID,91.9841,VALID,0,VALID,18.299,VALID,124,VALID,1.04805,
2011-08-02, 03:27:04,VALID,915.787,VALID,0,VALID,92.0527,VALID,0,VALID,18.338,VALID,124,VALID,1.06758,
2011-08-02, 03:28:04,VALID,915.783,VALID,0,VALID,92.2357,VALID,0,VALID,18.338,VALID,124,VALID,1.27148,
2011-08-02, 03:29:04,VALID,915.762,VALID,0,VALID,92.4949,VALID,0,VALID,18.3575,VALID,124,VALID,1.40937,
2011-08-02, 03:30:04,VALID,915.729,VALID,0,VALID,92.5102,VALID,0,VALID,18.3561,VALID,124,VALID,0.739844,
2011-08-02, 03:31:04,VALID,915.701,VALID,0,VALID,92.2814,VALID,0,VALID,18.3589,VALID,124,VALID,0.820313,
2011-08-02, 03:32:04,VALID,915.693,VALID,0,VALID,92.0832,VALID,0,VALID,18.2782,VALID,132,VALID,0.686328,
2011-08-02, 03:33:04,VALID,915.672,VALID,0,VALID,92.2052,VALID,0,VALID,18.3617,VALID,132,VALID,0.29375,
2011-08-02, 03:34:04,VALID,915.633,VALID,0,VALID,91.9308,VALID,0,VALID,18.299,VALID,132,VALID,0.990625,
2011-08-02, 03:35:04,VALID,915.641,VALID,0,VALID,91.8622,VALID,0,VALID,18.3213,VALID,132,VALID,1.21641,
2011-08-02, 03:36:04,VALID,915.615,VALID,0,VALID,91.8545,VALID,0,VALID,18.3032,VALID,132,VALID,1.08164,
2011-08-02, 03:37:04,VALID,915.585,VALID,0,VALID,91.0998,VALID,0,VALID,18.2809,VALID,132,VALID,0.916406,
2011-08-02, 03:38:04,VALID,915.586,VALID,0,VALID,91.5344,VALID,0,VALID,18.2809,VALID,132,VALID,1.21289,
2011-08-02, 03:39:04,VALID,915.56,VALID,0,VALID,90.65,VALID,0,VALID,18.2016,VALID,132,VALID,0.435156,
2011-08-02, 03:40:04,VALID,915.58,VALID,0,VALID,90.5891,VALID,0,VALID,18.1654,VALID,132,VALID,0.00117188,
2011-08-02, 03:41:04,VALID,915.587,VALID,0,VALID,91.9536,VALID,0,VALID,18.0833,VALID,132,VALID,1.59609,
2011-08-02, 03:42:04,VALID,915.593,VALID,0,VALID,92.5102,VALID,0,VALID,18.1055,VALID,132,VALID,1.1457,
2011-08-02, 03:43:04,VALID,915.57,VALID,0,VALID,92.7312,VALID,0,VALID,18.1028,VALID,132,VALID,0.926172,
2011-08-02, 03:44:04,VALID,915.563,VALID,0,VALID,92.6397,VALID,0,VALID,18.1431,VALID,132,VALID,0.663281,